Terminal Aerodrome Forecast
Issued by NWS

Home | Current Version | Previous Version | Text Only | Print | Product List | Glossary On
Versions: 1 2 3 4 5 6 7 8 9 10 11 12 13
000
FTUS44 KEPZ 010548
TAFDMN
TAF
KDMN 010548Z 0106/0206 18012G18KT P6SM FEW080 SCT250
     FM010800 15006KT P6SM FEW080 SCT250
     FM011800 20007KT P6SM FEW080 FEW250
     FM020400 26009KT P6SM FEW140 SCT250=

USA.gov is the U.S. government's official web portal to all federal, state and local government web resources and services.